Location: Chis
(43.2939°N, 0.1207°E)
Time: 02:08:16
(UTC+00:00)

Daily predictions for brighter satellites

Satellite Brightness Start Highest point End
(mag) Time Altitude Azimuth Time Altitude Azimuth Time Altitude Azimuth
Lacrosse 5 4.4 02:40:09 17° ENE 02:40:09 17° ENE 02:41:34 10° E
CZ-2C R/B 4.4 02:59:04 10° NE 03:02:02 22° ENE 03:02:02 22° ENE
ATLAS 5 CENTAUR R/B 4.3 03:19:17 11° ESE 03:19:17 11° ESE 03:20:29 10° E
S3M 4.2 03:21:13 66° ENE 03:21:13 66° ENE 03:27:00 10° NNE
ARIANE 5 R/B 4.0 03:20:58 10° N 03:23:22 29° N 03:23:22 29° N
Cosmos 1745 Rocket 4.1 03:20:11 10° N 03:26:31 75° E 03:26:32 75° E
USA 267 3.5 03:29:27 10° NE 03:35:44 52° NNW 03:35:57 52° NW
NOSS 3-2 (A) 4.1 03:35:06 10° NW 03:42:43 80° NE 03:51:20 10° SE
Cosmos 2344 3.4 03:46:42 63° WSW 03:48:00 81° NW 03:55:54 10° NE
Cosmos 1833 4.1 03:48:29 81° N 03:48:29 81° N 03:53:52 10° NNE
Cosmos 1386 Rocket 4.3 03:47:08 10° NNW 03:53:29 72° W 03:53:42 71° WSW
CENTAUR R/B 3.5 03:45:38 10° NNW 03:53:46 69° NE 04:02:39 10° SE
Cosmos 2251 Rocket 3.6 03:53:52 71° SSE 03:54:18 76° ESE 03:59:41 10° NNE
ISS -1.5 04:00:41 24° NE 04:00:41 24° NE 04:02:49 10° ENE
H-2A R/B 4.5 03:52:49 35° SW 04:00:37 48° S 04:07:20 10° ESE
Cosmos 2360 Rocket 3.7 04:04:23 21° S 04:04:23 21° S 04:06:14 10° S
ADEOS II 4.5 03:58:20 10° NNW 03:58:26 10° NNW 03:58:26 10° NNW
IDEFIX/ARIANE 42P 4.3 03:58:29 10° N 04:00:31 20° NNW 04:00:31 20° NNW
ALOS 3.1 03:59:43 10° NNE 04:04:15 49° E 04:07:02 22° SSE
PAYLOAD A 4.0 03:59:12 10° N 04:04:33 79° WNW 04:05:04 71° SW
Cosmos 2333 4.2 04:02:31 10° NNW 04:08:21 84° ENE 04:14:08 10° SSE
USA 234 3.2 04:02:56 10° SE 04:09:23 63° SW 04:11:34 42° WNW
CZ-4C R/B 2.5 04:10:13 38° S 04:11:52 55° ESE 04:17:23 10° NE
Cosmos 883 Rocket 4.3 04:11:11 39° SSW 04:13:36 76° W 04:19:45 10° N
USA 276 3.8 04:16:02 31° NE 04:16:02 31° NE 04:18:00 10° NE
PSLV R/B 3.4 04:12:31 10° NNE 04:16:55 87° WNW 04:17:21 73° SSW
NOSS 3-4 (A) 3.8 04:16:30 25° S 04:19:49 59° ESE 04:25:53 10° NE
NOSS 3-4 (C) 3.8 04:16:34 25° S 04:19:56 58° ESE 04:25:59 10° NE
Lacrosse 5 1.7 04:19:24 51° NW 04:20:42 82° SW 04:25:44 10° SE
NOSS 3-2 (C) 4.1 04:17:07 10° NW 04:24:48 88° ENE 04:33:26 10° SE
GPS 2-04 Rocket1 4.2 04:26:32 23° SSE 04:26:32 23° SSE 04:29:04 10° ESE
Cosmos 2333 Rocket 2.1 04:23:49 10° NNW 04:29:37 83° WSW 04:35:23 10° SSE
Cosmos 1437 Rocket 4.1 04:29:11 10° SSE 04:33:01 41° E 04:36:49 10° NNE
Cosmos 1484 Rocket 2.6 04:30:07 10° NNE 04:33:50 80° ESE 04:35:27 32° S
Cosmos 1805 Rocket 3.5 04:30:00 10° NNW 04:34:24 61° W 04:38:47 10° S
ATLAS 2AS CENTAUR R/B 3.6 04:27:18 10° SSW 04:34:57 57° ESE 04:42:35 10° NE
Landsat 5 3.1 04:31:52 10° S 04:35:40 69° WSW 04:39:34 10° NNW
SJ-6F 4.4 04:33:12 10° NNE 04:37:24 89° E 04:40:19 20° SSW
Cosmos 2315 Rocket 4.0 04:34:41 20° SSW 04:39:01 59° W 04:45:10 10° N
CZ-4B R/B 3.9 04:37:35 10° ESE 04:40:01 22° ENE 04:42:25 10° NNE
Cosmos 2297 Rocket 4.1 04:35:55 10° SSE 04:40:41 29° ESE 04:45:30 10° NE
COSMO-SKYMED 1 4.1 04:36:54 10° SE 04:40:55 38° ENE 04:44:57 10° N
CZ-2C R/B 2.8 04:36:52 10° N 04:41:12 36° WNW 04:41:25 36° WNW
Cosmos 1782 3.7 04:39:11 10° SSE 04:42:59 48° E 04:46:49 10° NNE
Cosmos 2219 Rocket 2.1 04:38:34 10° NNW 04:44:14 74° WSW 04:49:53 10° SSE
Cosmos 1606 3.9 04:47:57 27° NW 04:47:57 27° NW 04:50:28 10° NNW
Cosmos 1140 Rocket 3.7 04:43:10 10° S 04:48:21 73° ESE 04:53:32 10° NNE
CBERS 1 LM4 rocket 4.2 04:44:12 10° NNE 04:48:59 79° WNW 04:53:42 10° SSW
Sich 1 3.1 04:46:44 10° NNW 04:51:02 53° W 04:55:17 10° S
METEOR-M 4.0 04:49:41 10° N 04:55:02 74° WNW 05:00:20 10° SSW
Cosmos 1666 Rocket 3.4 04:53:50 10° NNW 04:58:13 75° W 05:02:36 10° S
Cosmos 2074 Rocket 4.0 04:52:52 10° N 04:59:08 86° E 05:05:20 10° S
MOS 1 Rocket 3.5 04:55:37 10° SSE 04:59:58 69° ENE 05:04:35 10° N
Cosmos 1023 Rocket 4.4 04:54:52 10° SSW 05:00:04 86° WNW 05:05:16 10° NNE
SeaSat 1 2.8 04:55:39 10° SE 05:00:31 66° ENE 05:05:25 10° NNW
COSMOS 2428 2.7 04:55:14 10° NNW 05:00:54 65° WSW 05:06:32 10° S
BREEZE M DEB (TANK) 3.2 04:59:34 20° NW 05:01:20 47° NNE 05:07:58 10° E
ATLAS 5 CENTAUR R/B 1.3 05:00:50 26° SW 05:02:55 64° NW 05:07:18 10° NNE
BREEZE-M DEB (TANK) 3.8 05:00:37 20° WNW 05:02:55 32° NNW 05:05:22 10° NE
CZ-4C R/B 4.4 05:04:28 21° NW 05:04:28 21° NW 05:06:01 10° NW
USA 238 DEB 4.2 04:57:55 10° NW 05:04:46 44° WSW 05:11:50 10° S
USA 238 4.2 04:58:01 10° NW 05:04:52 44° WSW 05:11:58 10° S
Cosmos 2154 Rocket 4.5 05:00:21 10° N 05:06:34 65° E 05:12:47 10° SSE
BREEZE-M DEB (TANK) 4.1 05:08:11 17° SSW 05:08:22 17° SSW 05:11:07 10° SSE
ATLAS 3B R/B 3.8 05:01:57 10° NNW 05:08:39 46° NE 05:15:35 10° ESE
CZ-4B R/B 3.5 05:05:58 10° N 05:09:38 78° WNW 05:13:16 10° SSW
ADEOS 3.5 05:05:05 10° NNE 05:10:20 81° WNW 05:15:33 10° SSW
Cosmos 1602 3.6 05:08:01 10° NNW 05:11:56 68° W 05:15:47 10° S
FENGYUN 3A 4.2 05:11:06 10° N 05:16:03 37° WNW 05:20:59 10° SW
H-2A R/B 2.4 05:13:20 10° S 05:17:19 40° W 05:21:15 10° NNW
Cosmos 1151 Rocket 3.1 05:14:28 10° SSW 05:18:41 52° W 05:22:54 10° N
Meteor 1-25 Rocket 4.4 05:14:12 10° NNW 05:19:30 48° W 05:24:48 10° SSW
Cosmos 909 Rocket 4.5 05:14:58 15° WSW 05:20:12 44° NW 05:26:13 10° NNE
Cosmos 2219 3.9 05:14:54 10° S 05:20:27 59° ESE 05:26:00 10° NNE
Cosmos 2322 4.4 05:16:17 10° NW 05:21:05 29° WSW 05:25:52 10° SSW
NOSS 0 Rocket 3.9 05:18:37 10° NNW 05:24:48 75° WSW 05:30:57 10° SSE
Cosmos 2184 Rocket 4.0 05:19:47 10° NNW 05:26:02 63° W 05:32:18 10° S
SKYMED 2 3.5 05:24:35 10° S 05:28:53 64° W 05:33:13 10° NNW
Cosmos 1633 Rocket 3.4 05:25:07 10° NNW 05:29:15 41° W 05:33:20 10° SSW
CZ-2C R/B 4.2 05:29:12 10° SSE 05:30:12 11° SSE 05:31:11 10° SE
USA-17 4.4 05:27:23 10° SW 05:31:23 79° NW 05:34:35 10° NE
Cosmos 1242 Rocket 2.6 05:30:24 10° S 05:33:50 74° E 05:37:20 10° NNE
H-2A R/B 2.8 05:30:54 10° NNE 05:34:49 88° ESE 05:38:41 10° SSW
ISS -3.8 05:33:38 10° WNW 05:37:00 76° SW 05:40:21 10° SE
Milstar 3 Cent rocket 4.0 05:35:18 10° SW 05:37:30 13° S 05:39:40 10° SSE
Cosmos 1812 2.7 05:35:12 10° S 05:39:01 86° W 05:42:52 10° N
CZ-2C R/B 4.0 05:35:43 10° SE 05:41:03 47° ENE 05:46:25 10° N
ALOS 3.7 05:38:00 10° NNW 05:41:17 19° WNW 05:44:35 10° WSW
CENTAUR R/B 3.8 05:36:55 10° NW 05:44:16 35° WSW 05:52:00 10° S
BREEZE-M DEB (TANK) 4.3 05:43:22 10° NNW 05:44:23 12° NNE 05:45:33 10° NE
Meteor 1-31 Rocket 3.6 05:42:54 10° N 05:46:16 29° WNW 05:49:34 10° SW
Cosmos 1954 Rocket 4.0 05:41:50 10° SSW 05:47:04 64° WNW 05:52:18 10° NNE
Meteor 1-14 Rocket 4.3 05:41:43 10° NNW 05:47:17 58° W 05:52:56 10° S
RESURS DK-1 2.4 05:43:24 10° SSW 05:47:31 88° WNW 05:51:40 10° NNE
SAR-Lupe-4 4.1 05:46:16 10° SSE 05:49:47 65° ENE 05:53:20 10° N
USA 276 3.8 05:48:50 10° WNW 05:51:31 24° N 05:54:12 10° NE
Cosmos 2237 Rocket 2.2 05:46:26 10° NNW 05:52:05 67° WSW 05:57:40 10° SSE
Cosmos 407 Rocket 4.4 05:48:44 10° WSW 05:53:08 28° WNW 05:57:32 10° N
Timation 2 Rocket 4.2 05:51:09 10° SSW 05:58:02 79° WNW 06:04:49 10° NNE
